Regional Weather Roundup
Issued by NWS

Home | Current Version | Previous Version | Graphics & Text | Print | Product List | Glossary On
Versions: 1 2 3 4 5 6 7 8 9 10 11 12 13 14 15 16 17 18 19 20 21 22 23 24 25 26 27 28 29 30 31 32 33 34 35 36 37 38 39 40 41 42 43 44 45 46 47 48 49 50
000
ASUS45 KTFX 231410
RWRMT
MONTANA REGIONAL WEATHER ROUNDUP
NATIONAL WEATHER SERVICE GREAT FALLS MT
800 AM MDT SAT MAY 23 2015

NOTE: "FAIR" INDICATES FEW OR NO CLOUDS BELOW 12000 FEET WITH NO
SIGNIFICANT WEATHER AND/OR OBSTRUCTIONS TO VISIBILITY.

MTZ001>007-043-231500-
WEST OF THE DIVIDE

CITY           SKY/WX    TMP DP  RH WIND       PRES   REMARKS
KALISPELL      SUNNY     59  38  45 N10       30.02S
MISSOULA       PTSUNNY   53  41  63 NW6       30.02R
BUTTE          MOSUNNY   48  40  73 CALM      30.04S
MULLAN PASS    SUNNY     51  34  52 CALM      30.08R
DEER LODGE       N/A     54  43  66 N8        30.07S
EUREKA           N/A     57  37  47 S3        30.07S
HAMILTON         N/A     50  45  81 SW2       30.02R
LIBBY            N/A     52  39  62 CALM      30.06R
RONAN            N/A     56  44  64 CALM      30.05R
THOMPSON FALLS   N/A     51  43  74 CALM      30.05S
$$

MTZ008-052>055-231500-
SOUTHWEST MONTANA

CITY           SKY/WX    TMP DP  RH WIND       PRES   REMARKS
BOZEMAN        CLOUDY    52  45  77 SW7       30.00R
DILLON         CLOUDY    50  44  80 E8        29.99F
W YELLOWSTONE  PTSUNNY   46  37  71 N6        29.99S
THREE FORKS      N/A     55  55 100 N1        29.99S
TWIN BRIDGES     N/A     52  41  66 N17       29.97S
$$

MTZ009-010-012-014-046-048-049-054-231500-
EAST SLOPES AND CENTRAL MONTANA

CITY           SKY/WX    TMP DP  RH WIND       PRES   REMARKS
CUT BANK       SUNNY     53  41  63 N3        30.09R
GREAT FALLS    RAIN      50  48  93 E7        30.06S FOG
MALMSTROM AFB  RAIN      50  48  93 S2        30.07R
HELENA         CLOUDY    55  43  63 NW9       30.02S
CONRAD           N/A     49  49 100 SE5       30.09R
$$

MTZ011-013-016-021-045-047-050-051-231500-
NORTH CENTRAL MONTANA

CITY           SKY/WX    TMP DP  RH WIND       PRES   REMARKS
HAVRE          CLOUDY    61  48  62 E10       30.04S
LEWISTOWN      LGT RAIN  51  48  89 CALM      30.04S
N BAR RANCH    CLOUDY    50  48  93 CALM      30.06S
CHINOOK          N/A     55  46  71 E7        30.06R
FORT BENTON      N/A     54  52  94 W3        30.06R
$$

MTZ017>020-022>027-061-062-231500-
NORTHEAST MONTANA

CITY           SKY/WX    TMP DP  RH WIND       PRES   REMARKS
GLASGOW        PTSUNNY   56  40  55 E14       30.07R
JORDAN           N/A     53  42  66 E13       30.03S
SIDNEY         SUNNY     55  39  54 E5        30.12S
WOLF POINT     PTSUNNY   56  42  59 E10       30.09S
MALTA            N/A     57  44  62 NE8       30.02S
PLENTYWOOD       N/A     63  39  42 SE6       30.12S
SCOBEY           N/A     58  37  45 E12       30.09S
$$

MTZ028>42-056>058-231500-
SOUTHCENTRAL AND SOUTHEAST MONTANA

CITY           SKY/WX    TMP DP  RH WIND       PRES   REMARKS
BAKER          MOSUNNY   50  42  74 SE16      30.07S
BILLINGS       CLOUDY    52  45  77 NE9       29.99R
LIVINGSTON     CLOUDY    51  48  89 NE5       29.99F
MILES CITY     MOSUNNY   52  42  69 CALM      30.02S
BIG TIMBER       N/A     50  48  93 N9        30.02R
EKALAKA          N/A     45  41  86 E12       30.02S
FORSYTH          N/A     52  45  76 E8        30.01R
LAUREL           N/A     52  42  68 N3        29.98S
ROUNDUP          N/A     52  45  77 NE3       29.93R
$$

REGIONAL REPORTS...DAKOTAS

CITY           SKY/WX    TMP DP  RH WIND       PRES   REMARKS
WILLISTON      SUNNY     58  41  53 NE3       30.13S
MINOT          SUNNY     60  40  47 SW8       30.13F
DICKINSON      MOSUNNY   50  43  77 SE10      30.10F
BEACH          FAIR      50  46  87 SE16      30.10S
CROSBY         FAIR      63  41  45 SW6       30.13S
WATFORD CITY   FAIR      55  39  54 SE13      30.11S
BISMARCK       MOSUNNY   54  45  71 SE7       30.17S
GRAND FORKS    MOSUNNY   59  44  57 SW3       30.14S
FARGO          MOSUNNY   62  45  53 SW8       30.19S
BUFFALO SD       N/A     50  44  80 SE13      30.01R
RAPID CITY     CLOUDY    49  45  86 SE13      30.06S
$$

REGIONAL REPORTS...WYOMING/IDAHO/WASHINGTON

CITY           SKY/WX    TMP DP  RH WIND       PRES   REMARKS
GILLETTE       CLOUDY    47  43  86 SE12      29.99R
SHERIDAN       CLOUDY    48  44  86 W5        29.97S
BUFFALO WY     LGT RAIN  46  45  96 E5        29.99R
CODY           CLOUDY    46  45  93 N12       29.97S
YELLOWSTONE LA   N/A     41  36  82 VRB5      30.03S
IDAHO FALLS    CLOUDY    50  47  89 CALM      29.92S
SALMON         PTSUNNY   48  45  87 CALM      29.98R
BOISE          PTSUNNY   56  51  84 NW3       29.90S
SPOKANE        PTSUNNY   55  51  86 CALM      29.99S
$$

REGIONAL REPORTS...ALBERTA

CITY           SKY/WX    TMP DP  RH WIND       PRES   REMARKS
EDMONTON       SUNNY     61  39  44 CALM      30.10R
CALGARY        MOSUNNY   52  30  43 CALM      30.15R
LETHBRIDGE     MOSUNNY   52  39  62 NW5       30.11R
MEDICINE HAT   MOSUNNY   55  43  62 NE3       30.09R
$$

REGIONAL REPORTS...SASKATCHEWAN

CITY           SKY/WX    TMP DP  RH WIND       PRES   REMARKS
SWIFT CURRENT  SUNNY     64  37  36 S5        30.10S
REGINA         MOSUNNY   61  41  48 S6        30.13S
SASKATOON      PTSUNNY   59  41  51 S8        30.12R
$$


USA.gov is the U.S. government's official web portal to all federal, state and local government web resources and services.